This is the latest recevied weather packets stored in our database for station/object KC1OEK-13. If no packets are shown the sender has not sent any weather packets the latest 10 day(s).
| Time | Temp. | Humidity | Pressure | Rain* | Wind** | Luminosity | Snow |
|---|---|---|---|---|---|---|---|
| 1787686920 | 23.89° C | 65% | 1016.3 hPa | 0 mm | - | 225 W/m² | - |
| 1787686616 | 24.44° C | 65% | 1016.3 hPa | 0 mm | - | 235 W/m² | - |
| 1787686312 | 24.44° C | 64% | 1016.4 hPa | 0 mm | - | 232 W/m² | - |
| 1787686007 | 24.44° C | 64% | 1016.6 hPa | 0 mm | - | 204 W/m² | - |
| 1787685703 | 25° C | 62% | 1016.4 hPa | 0 mm | - | 318 W/m² | - |
| 1787685402 | 25° C | 63% | 1016.4 hPa | 0 mm | - | 249 W/m² | - |
| 1787685097 | 24.44° C | 63% | 1016.4 hPa | 0 mm | - | 254 W/m² | - |
| 1787684793 | 24.44° C | 64% | 1016.7 hPa | 0 mm | - | 263 W/m² | - |
| 1787684492 | 25° C | 62% | 1016.8 hPa | 0 mm | - | 183 W/m² | - |
| 1787684186 | 24.44° C | 62% | 1016.8 hPa | 0 mm | - | 721 W/m² | - |
| 1787683881 | 24.44° C | 63% | 1016.8 hPa | 0 mm | - | 246 W/m² | - |
| 1787683576 | 23.89° C | 64% | 1017 hPa | 0 mm | - | 234 W/m² | - |
| 1787683271 | 25° C | 62% | 1016.7 hPa | 0 mm | - | 228 W/m² | - |
| 1787682969 | 25.56° C | 60% | 1016.9 hPa | 0 mm | - | 735 W/m² | - |
| 1787682664 | 25.56° C | 62% | 1016.9 hPa | 0 mm | - | 669 W/m² | - |
| 1787682360 | 25.56° C | 60% | 1016.9 hPa | 0 mm | - | 661 W/m² | - |
| 1787682055 | 25° C | 61% | 1016.8 hPa | 0 mm | - | 673 W/m² | - |
| 1787681751 | 24.44° C | 63% | 1017.1 hPa | 0 mm | - | 695 W/m² | - |
| 1787681445 | 25° C | 66% | 1017.1 hPa | 0 mm | - | 757 W/m² | - |
| 1787681145 | 25° C | 64% | 1017.1 hPa | 0 mm | - | 746 W/m² | - |
| 1787680840 | 24.44° C | 64% | 1017 hPa | 0 mm | - | 708 W/m² | - |
| 1787680535 | 25° C | 63% | 1016.9 hPa | 0 mm | - | 710 W/m² | - |
| 1787680233 | 24.44° C | 64% | 1017 hPa | 0 mm | - | 701 W/m² | - |
| 1787679933 | 23.33° C | 66% | 1017.1 hPa | 0 mm | - | 346 W/m² | - |
| 1787679627 | 23.33° C | 68% | 1016.8 hPa | 0 mm | - | 459 W/m² | - |
* Rain latest hour (hover to see other rain measurements)
** Current wind speed in m/s (hover to see current wind gust speed)